Theta_e
317 318 319 320 320 319 319 319 319 319 319 318 315 312 311 311 313 316 315 309 306 308 310 310 311 312 312 312 314 317 320 322 325 326 326 327 327 326 326 326 326 326 326 326 325 325 324 325 324 322 323 323 323 324 325 324 323 325 329 331 330 331 331 330 330 329 329 330 326 320 318 323 325 321 320 321 322 323 324 325 327 328 329 331 331 328 329 331
315 316 318 320 320 319 319 319 320 319 319 319 317 313 311 311 312 315 317 312 307 306 308 310 311 312 313 312 314 317 319 322 324 324 325 325 326 325 326 326 326 326 326 326 327 325 325 324 323 322 323 323 324 325 325 324 323 325 329 330 330 332 331 328 329 327 328 329 326 322 319 321 325 323 321 324 326 324 325 326 326 327 329 331 329 328 330 331
315 315 316 318 319 319 319 319 320 319 319 319 319 316 312 311 311 313 316 313 308 308 310 310 310 312 313 313 315 316 319 323 322 321 322 322 323 324 325 326 326 327 327 327 327 325 324 323 323 323 322 323 323 324 326 325 324 325 328 330 331 331 329 327 327 327 327 327 328 325 320 320 322 321 322 325 328 326 326 327 327 327 327 330 329 329 330 331
315 315 315 317 318 318 319 319 319 319 320 319 319 318 315 311 311 311 314 313 310 310 312 311 310 311 312 314 314 315 319 319 317 318 319 316 316 319 323 325 326 327 327 326 325 324 323 322 321 322 322 323 323 323 326 326 325 325 326 329 330 328 328 328 326 326 326 324 327 326 321 322 322 320 322 325 328 329 328 327 327 327 326 330 329 329 331 331
314 315 315 316 316 317 318 319 319 319 319 319 319 319 317 313 310 310 311 311 310 311 313 312 311 311 312 314 314 316 317 312 315 320 320 318 314 314 317 322 325 327 326 325 325 322 322 322 321 321 322 323 324 324 325 325 325 325 326 327 327 326 328 328 326 325 323 321 323 323 323 325 320 319 322 324 327 330 328 325 325 325 324 329 329 330 332 331
312 314 315 315 315 316 317 319 319 319 319 319 319 319 319 316 311 309 309 309 310 311 312 313 312 311 313 314 313 316 314 310 320 324 322 324 321 318 317 318 324 326 326 326 325 322 322 322 321 322 322 323 324 323 324 325 324 327 328 326 325 325 326 327 326 325 322 321 324 323 323 322 320 321 321 321 324 326 323 321 322 323 323 328 331 330 331 331
311 312 314 314 314 315 316 317 319 319 319 319 319 318 319 318 313 310 309 308 309 310 312 313 312 312 314 314 315 317 315 313 320 324 323 324 324 323 321 321 325 327 327 327 326 324 323 321 322 323 323 323 324 322 323 324 324 327 329 327 326 325 325 325 324 322 322 323 323 319 319 320 323 325 320 320 323 323 323 321 322 323 324 328 330 330 331 332
310 311 312 313 313 314 314 315 318 318 319 319 319 318 318 319 315 311 310 309 308 309 311 313 312 313 314 316 317 316 315 315 316 320 322 322 323 325 325 326 328 328 327 327 327 325 323 322 322 322 323 323 323 322 323 324 324 326 328 327 327 326 325 325 323 320 321 322 319 317 319 324 325 323 320 322 324 323 323 322 322 324 326 327 327 328 330 332
310 310 311 311 313 313 313 314 316 316 318 318 318 319 318 318 317 313 311 310 308 308 310 312 313 314 314 316 317 314 314 314 313 315 318 320 322 324 326 327 328 328 327 327 327 326 324 323 323 322 323 323 322 322 323 323 324 325 326 326 326 326 326 325 324 322 322 321 319 320 324 327 324 321 323 325 325 325 324 321 321 324 325 327 327 327 329 331
309 310 311 311 312 313 313 313 313 314 316 317 317 319 318 318 318 314 312 311 309 308 309 312 315 315 315 317 316 313 314 313 313 311 312 317 319 322 327 328 328 328 328 327 327 326 324 323 323 321 321 322 321 322 323 322 323 323 324 325 325 325 326 325 324 324 323 322 322 323 327 327 321 322 328 327 324 323 322 321 322 324 324 326 327 327 330 331
309 309 311 310 311 312 313 312 313 313 315 317 317 317 318 318 318 315 312 311 310 309 308 311 315 315 316 317 314 313 313 315 318 313 310 315 318 321 324 326 328 328 328 327 327 326 324 323 321 321 320 321 321 321 322 322 321 322 323 324 324 324 325 324 324 323 322 323 322 323 327 326 319 321 328 327 322 320 320 321 322 323 324 325 327 328 330 330
309 309 310 310 311 312 312 312 312 312 314 317 317 317 317 317 318 316 313 311 310 310 309 311 314 315 316 316 314 313 313 315 320 318 316 318 320 321 321 322 326 328 328 327 327 326 324 321 319 321 321 320 321 321 321 320 321 322 322 323 323 324 324 324 325 323 323 323 321 321 326 327 322 322 325 326 324 321 322 323 322 324 324 325 327 328 329 330
309 309 309 310 310 311 311 311 312 312 313 316 317 317 317 317 317 317 314 312 311 311 310 311 315 317 316 315 314 314 314 314 317 319 321 322 322 323 322 321 322 324 327 328 328 327 325 323 319 320 320 320 321 321 320 320 321 322 322 322 322 323 324 323 324 324 323 323 320 323 328 329 327 325 325 325 324 322 322 324 323 324 324 326 327 327 328 329
308 309 309 309 310 311 311 311 312 312 312 314 316 316 317 316 317 317 315 312 311 311 311 313 315 317 315 314 314 314 312 312 315 317 320 323 324 324 324 324 323 323 326 328 328 326 326 324 319 319 320 320 321 320 322 323 322 322 323 324 323 324 324 323 324 324 324 321 319 324 328 329 329 327 326 324 322 322 323 325 324 323 323 325 327 327 327 329
307 308 309 309 309 310 311 311 311 312 313 313 315 316 317 316 317 317 315 313 312 310 312 314 315 315 315 314 313 313 312 313 313 313 316 320 323 324 324 326 326 326 327 327 327 326 324 323 320 321 320 320 321 322 324 325 324 323 324 325 324 325 325 324 324 324 324 321 320 325 328 327 328 328 328 325 321 320 322 325 325 324 323 323 326 327 327 328
307 307 308 308 309 310 311 312 311 311 312 313 314 316 317 317 316 316 316 313 312 311 313 315 315 314 314 314 312 312 314 315 314 311 310 315 320 323 323 325 325 325 326 324 326 324 321 322 322 322 321 321 322 323 325 326 326 325 325 325 325 326 326 325 325 323 323 322 320 324 327 326 326 327 327 323 320 320 321 324 325 324 322 322 324 325 326 327
307 307 308 307 308 310 310 312 312 311 311 312 314 315 316 317 316 316 316 314 313 314 315 314 314 314 313 313 311 312 314 315 314 312 310 310 315 321 323 324 324 322 322 321 322 322 320 322 323 323 322 322 323 324 326 326 326 326 326 325 324 324 325 325 325 324 324 325 323 323 324 326 326 326 325 322 320 321 323 324 325 325 323 321 322 324 326 326
307 307 308 307 308 309 309 311 312 312 311 312 313 315 316 317 316 316 315 314 315 314 313 312 312 314 314 313 311 312 314 314 313 312 313 312 313 320 321 320 321 321 322 321 321 322 321 321 323 326 325 324 324 325 327 327 325 325 326 325 325 323 324 325 324 324 324 325 326 325 324 325 325 325 325 322 319 319 321 323 324 325 322 320 320 321 323 325
307 307 308 308 308 307 309 311 312 312 311 312 313 314 316 315 316 316 313 312 314 313 313 312 312 314 314 312 312 312 313 313 312 313 316 316 316 319 319 318 320 321 324 323 322 323 322 323 324 328 329 326 325 325 325 324 322 323 324 325 326 325 325 324 323 323 324 325 326 327 326 325 325 324 325 324 320 319 320 321 322 321 320 319 318 318 319 321
308 308 308 308 309 308 308 310 311 312 312 313 314 315 316 315 315 314 310 310 312 313 314 313 312 312 311 312 312 313 313 314 314 316 317 316 317 319 318 318 319 321 323 323 323 323 322 326 327 327 329 327 325 324 323 322 321 322 322 322 324 324 324 324 324 323 322 324 324 325 326 325 325 324 324 324 323 322 321 321 321 320 320 319 319 318 318 319
307 308 308 308 309 308 308 310 311 311 311 313 315 316 316 316 315 312 309 311 311 312 313 312 312 311 311 314 315 314 315 316 316 317 317 315 316 318 318 319 319 322 324 321 323 323 322 327 328 325 326 325 325 324 323 323 323 323 322 322 322 322 322 323 324 323 322 324 323 323 325 325 325 325 324 323 324 324 322 322 322 322 322 321 320 320 319 319
306 306 307 308 309 309 309 309 311 311 311 313 315 316 316 315 314 311 311 312 311 311 312 312 312 312 310 312 314 314 315 315 315 317 317 316 316 315 316 318 318 321 324 322 324 324 325 327 326 324 324 323 324 324 324 324 324 324 323 323 322 321 322 322 323 324 322 323 324 322 324 324 324 324 324 324 323 324 323 323 323 323 323 323 322 321 321 321
305 305 306 308 309 309 309 310 311 311 312 314 315 315 315 313 312 310 310 310 311 312 311 311 312 311 311 312 313 313 313 314 314 316 317 317 316 314 315 317 316 318 321 323 324 324 325 324 322 322 323 323 324 324 325 325 325 325 325 324 324 322 323 322 322 324 323 322 323 323 324 323 322 322 323 324 323 323 323 323 323 323 323 323 323 323 322 322
305 305 306 308 309 309 309 310 311 312 312 314 315 315 314 312 311 310 309 309 311 311 311 311 312 311 312 312 313 312 312 313 314 315 317 317 315 313 314 316 315 316 318 320 323 323 322 321 320 321 322 323 324 325 325 326 326 326 325 325 324 323 323 322 322 323 324 323 323 324 325 324 322 322 323 323 323 323 323 323 324 324 323 323 324 324 323 323
307 306 306 308 309 309 309 310 312 312 312 312 314 314 312 311 310 309 308 309 311 311 311 311 311 311 311 311 313 313 312 313 313 315 317 316 315 314 314 315 315 315 316 317 321 323 321 319 319 321 322 322 324 326 325 326 328 327 326 325 324 323 323 322 322 323 323 324 324 325 327 325 321 322 323 323 323 323 323 323 323 324 323 323 323 323 323 323
308 307 307 308 309 309 310 311 312 312 312 312 312 312 311 309 308 308 308 309 311 312 312 311 311 312 311 311 314 312 312 314 314 316 318 317 316 314 314 315 315 314 314 316 319 322 322 320 320 320 321 322 323 325 324 324 327 328 326 324 324 324 323 323 323 323 324 323 323 324 326 325 321 320 322 322 322 322 323 323 323 323 323 323 323 323 323 323
308 308 308 309 309 310 311 311 310 310 311 312 312 311 310 309 307 306 308 309 311 312 312 311 311 311 311 312 312 311 313 315 314 316 318 317 316 316 314 315 315 314 314 316 317 319 320 320 322 321 321 322 323 323 323 323 326 328 326 324 324 324 324 324 324 324 324 323 323 323 324 324 323 321 320 320 320 320 321 322 323 323 323 323 323 323 323 322
308 309 309 309 309 309 310 310 310 311 311 311 311 310 309 309 307 307 309 310 312 312 312 311 310 310 311 312 310 310 313 314 314 316 317 317 317 316 315 315 315 314 314 315 315 316 316 317 320 322 322 323 322 321 321 323 325 327 326 324 324 324 325 325 324 324 325 326 326 324 323 324 324 321 320 320 320 319 319 320 321 322 322 323 322 322 323 322
308 309 309 309 309 310 310 310 310 311 310 310 310 308 307 307 306 307 310 310 311 311 310 311 310 310 312 312 311 310 311 313 315 313 313 316 315 313 315 316 315 315 314 314 313 312 314 316 317 319 322 323 321 320 321 322 323 323 323 322 323 324 325 324 325 325 327 328 327 324 322 324 324 321 320 321 320 319 319 319 319 321 322 323 322 322 323 322
309 309 309 309 310 310 310 309 309 310 310 309 309 307 306 307 307 309 310 311 310 309 310 312 311 312 313 313 312 311 311 313 314 312 311 313 312 311 313 314 315 316 316 316 315 313 314 316 316 318 320 320 320 321 321 321 322 322 322 323 324 325 324 325 326 326 328 329 328 324 322 322 324 323 319 321 320 319 319 318 318 319 320 322 322 322 323 322
308 308 309 310 311 311 310 309 309 309 309 309 308 307 307 308 309 311 311 311 310 309 312 313 311 313 313 313 313 312 311 313 314 313 313 312 311 312 314 314 314 316 317 318 318 316 316 316 317 318 318 319 320 321 322 322 323 323 323 324 326 326 326 327 327 327 328 330 328 324 322 323 325 324 319 319 320 318 318 317 317 317 318 320 322 322 322 322
308 309 309 310 310 310 310 309 309 309 308 308 307 306 308 309 310 311 312 311 309 309 313 312 311 313 312 312 314 312 311 314 315 315 314 313 313 314 315 313 313 315 316 318 317 317 317 316 316 318 317 319 320 321 323 324 323 323 324 325 327 327 328 329 329 328 329 330 327 323 323 324 324 322 319 318 318 317 317 316 317 317 316 318 320 321 321 322
308 308 308 309 309 309 309 309 309 309 308 307 306 307 309 310 310 312 312 309 308 310 312 311 311 312 311 312 313 312 312 313 314 314 314 313 314 314 314 313 313 313 314 315 315 316 316 315 315 317 317 318 320 322 324 325 324 324 325 326 326 327 329 330 329 328 328 328 325 322 325 326 323 320 319 319 318 317 318 317 317 318 317 317 318 320 321 322
308 308 307 309 309 308 308 308 309 308 307 307 307 307 310 312 311 311 310 308 308 311 312 311 312 312 312 312 312 312 312 313 314 314 314 314 314 314 314 314 314 312 312 313 314 314 314 314 315 316 317 317 319 321 322 323 323 323 324 325 325 326 327 327 327 328 328 327 325 324 327 326 324 322 320 319 319 319 319 318 318 318 318 319 320 320 321 321
308 308 307 308 308 308 308 308 308 307 307 308 308 308 310 312 312 309 308 308 310 311 312 311 312 313 312 312 312 312 312 313 313 314 314 314 314 314 314 314 313 313 312 312 313 313 313 314 315 316 316 316 318 319 319 322 324 323 322 324 326 327 325 324 325 325 325 326 326 326 326 324 322 321 319 319 319 318 319 319 319 319 319 321 322 321 321 320
308 307 308 308 308 308 308 307 307 306 307 308 309 309 310 312 311 308 308 310 310 311 312 312 311 313 313 312 312 312 311 312 313 313 314 314 313 313 313 313 313 313 312 311 312 314 313 313 315 316 316 316 317 318 318 320 324 325 324 324 326 325 324 326 327 325 324 327 327 326 325 323 322 322 320 320 320 318 319 319 319 320 319 319 320 321 321 321
307 307 307 307 307 307 308 307 306 306 307 307 308 310 310 311 310 308 308 310 310 310 312 313 312 312 312 311 312 312 311 312 313 313 314 313 312 313 313 313 313 313 313 311 312 315 314 312 315 318 317 316 315 317 318 318 321 324 324 325 324 322 321 323 326 327 325 327 328 327 326 325 324 325 322 320 321 320 319 319 319 320 320 320 320 321 321 320
307 306 306 306 306 307 307 307 306 307 307 308 309 309 309 309 308 308 309 310 310 310 312 313 312 311 311 311 311 312 311 312 313 312 313 313 312 312 312 312 313 313 313 312 312 314 314 312 315 318 318 318 317 318 320 320 319 321 321 323 324 323 323 322 324 328 329 328 329 329 328 326 324 325 322 321 321 321 320 320 320 320 320 320 321 321 321 321
306 306 306 306 307 307 307 306 306 307 307 308 309 309 308 308 308 309 309 310 310 310 310 312 311 310 311 310 310 312 310 311 313 312 313 312 311 312 313 312 313 313 312 313 312 312 313 313 315 318 318 319 320 320 321 322 321 319 319 322 322 321 323 324 324 326 328 329 328 329 330 328 324 322 321 321 321 320 321 320 320 321 320 321 321 321 323 323
306 307 306 307 308 307 306 305 306 307 307 308 309 308 307 307 308 309 310 310 309 309 309 310 310 310 311 310 310 311 310 310 312 312 311 312 311 312 312 311 313 313 312 313 313 312 313 312 314 317 317 319 321 321 320 321 321 320 320 322 322 321 322 324 323 323 325 327 327 329 330 328 323 321 321 321 321 321 321 320 321 321 321 321 321 322 323 323
306 306 306 307 308 307 306 306 306 306 307 308 308 307 306 307 308 309 310 309 308 309 309 309 309 309 310 311 310 310 310 310 311 311 310 311 311 311 312 311 312 313 313 314 314 313 313 312 313 316 317 319 320 318 318 318 319 321 322 322 321 321 322 323 322 322 323 324 325 327 328 326 322 321 321 321 321 321 320 320 321 321 321 321 321 322 322 322
306 305 305 307 307 306 306 307 306 305 306 307 306 306 307 307 308 309 309 308 309 311 310 309 309 309 310 311 311 311 310 310 311 311 310 310 310 311 311 311 312 313 313 314 314 314 314 313 312 314 316 318 317 313 313 312 311 314 318 319 320 321 321 322 322 321 321 323 324 325 326 326 322 320 319 319 320 319 318 318 319 319 319 320 320 320 320 320
305 305 306 306 307 306 306 306 306 306 306 306 305 307 307 307 308 309 308 308 309 309 310 310 309 309 310 310 311 311 311 310 310 311 310 310 311 310 310 310 312 313 312 313 313 313 314 313 313 313 313 313 313 312 312 311 309 311 314 315 319 321 321 320 319 318 319 322 324 324 325 325 323 321 319 318 318 315 314 316 317 317 318 318 318 318 318 318
305 306 306 306 306 306 306 306 306 306 306 305 306 307 308 307 308 308 308 308 309 309 309 310 309 309 310 311 310 310 310 310 310 310 311 311 310 309 309 310 312 313 313 313 313 312 313 313 313 313 313 313 312 312 312 312 312 314 315 314 315 318 318 316 315 315 317 321 322 324 324 324 322 320 319 318 316 314 313 313 314 315 316 316 316 316 316 316
305 306 307 306 305 305 306 306 306 306 306 307 307 307 308 308 307 308 308 306 308 310 309 308 308 309 311 311 310 310 310 310 310 310 311 311 309 307 309 311 312 312 312 313 312 311 313 313 312 313 314 314 313 312 312 312 313 313 315 315 315 316 316 315 315 315 317 320 321 322 322 320 317 315 316 316 316 316 315 313 312 312 314 314 314 315 314 314
306 306 306 305 304 303 304 305 306 306 307 307 308 308 308 308 306 307 307 304 304 307 308 307 308 310 310 311 310 310 310 310 310 310 310 311 310 308 308 310 311 312 312 313 313 311 311 312 312 313 313 313 313 313 312 313 315 314 314 315 314 315 316 316 315 314 314 316 316 316 316 315 313 312 313 314 315 317 317 315 315 315 315 316 315 315 314 313
306 305 304 304 303 303 303 304 305 307 307 308 309 308 308 308 306 305 306 305 304 306 306 306 309 310 310 311 311 310 310 309 310 310 310 310 309 307 306 308 310 312 312 313 312 310 309 311 312 313 313 312 313 316 313 313 315 315 314 315 314 315 315 315 315 314 313 314 314 313 313 314 313 312 312 312 314 316 317 316 316 316 316 316 314 314 313 313
303 304 302 302 304 305 304 305 306 306 307 307 308 308 308 308 307 307 305 304 304 306 307 307 308 310 311 310 311 311 309 308 309 310 310 309 308 308 307 308 309 310 311 311 311 311 310 312 312 312 313 312 313 315 313 312 314 313 313 314 314 314 314 314 314 313 313 314 313 313 314 314 313 312 312 312 315 316 316 316 315 315 315 314 313 313 313 313
301 301 300 300 304 306 305 306 306 306 306 307 307 307 308 308 308 307 305 305 306 306 308 309 308 309 310 310 310 310 309 309 309 309 309 309 309 309 310 309 309 309 310 310 311 311 311 312 312 312 313 313 313 313 312 311 312 312 312 312 312 313 314 313 313 313 313 314 313 313 314 314 313 312 312 312 314 315 314 314 314 314 314 313 312 312 312 312
303 304 302 302 304 305 305 305 306 306 306 307 307 307 308 308 307 306 304 305 308 306 306 308 308 308 310 310 310 310 309 308 309 308 308 309 309 310 310 310 309 309 310 311 311 310 311 312 312 311 312 312 312 312 311 311 312 312 312 312 311 312 313 313 314 313 314 314 313 313 314 314 313 312 313 312 314 314 314 313 314 313 312 312 312 312 312 313
303 304 304 305 305 305 305 305 306 306 306 306 307 307 308 307 306 305 303 303 306 307 306 307 307 307 308 309 309 309 308 308 309 309 308 309 310 309 309 309 309 310 310 310 311 310 310 311 312 311 311 312 311 311 311 312 312 312 312 312 312 313 313 313 313 314 314 315 314 315 315 314 313 313 314 314 314 314 313 312 312 312 312 312 312 312 313 313
301 304 306 307 306 305 306 305 306 306 306 306 306 307 308 306 305 306 304 303 305 307 306 307 307 307 307 308 309 309 309 308 307 307 308 308 308 309 310 309 309 309 310 309 310 310 310 311 311 312 312 311 312 312 311 311 312 312 311 311 311 312 312 312 312 313 313 314 314 315 315 314 313 314 314 314 314 314 312 312 312 313 312 312 312 312 312 312
Wind_Speed
29 30 32 31 31 31 30 29 27 26 24 25 27 28 25 22 20 19 19 17 16 15 15 14 14 13 11 11 11 12 12 11 12 15 17 17 18 19 17 13 10 10 9 9 8 6 5 4 1 1 3 2 1 1 1 1 0 3 4 6 6 7 6 5 7 5 0 2 5 5 5 2 1 2 2 1 5 6 3 5 4 3 4 2 2 3 6 15
30 30 32 32 33 33 32 30 29 28 26 24 25 28 27 25 22 20 20 18 17 16 15 15 15 14 12 11 11 11 11 11 14 19 22 20 20 21 20 18 16 13 9 6 7 8 8 6 3 2 2 2 1 1 2 1 2 5 5 5 7 8 4 3 6 6 3 3 3 5 4 3 2 1 2 4 6 5 6 6 6 7 8 5 4 7 11 15
30 30 31 32 33 34 34 32 31 30 28 26 25 27 28 27 24 22 21 20 17 16 16 15 15 15 13 11 10 10 9 10 14 21 25 25 26 25 22 20 18 16 13 8 6 8 9 6 4 5 3 3 2 1 3 2 3 4 5 6 8 7 3 3 6 7 6 5 4 4 3 3 3 2 3 5 8 7 9 7 6 9 11 9 8 10 14 16
30 31 31 32 33 35 35 33 34 32 29 28 27 26 28 28 26 24 22 20 18 17 17 15 15 15 14 11 10 9 7 9 12 15 22 28 31 30 27 24 19 18 14 10 8 8 9 5 5 5 4 4 3 2 5 4 3 3 5 9 8 4 5 8 8 8 6 4 6 3 2 4 2 3 4 5 7 8 8 8 8 10 9 9 10 11 14 17
30 31 31 32 32 34 35 34 35 34 32 30 29 27 26 28 28 26 24 21 18 18 18 16 15 15 15 12 10 7 5 6 4 2 8 16 27 32 32 28 23 20 15 11 9 8 8 7 6 5 5 6 5 4 7 7 3 3 7 10 8 3 7 9 7 7 3 1 5 3 4 4 2 4 7 8 9 8 3 2 6 8 7 5 12 12 14 16
32 31 31 32 31 32 33 34 35 35 34 32 32 29 27 28 28 27 26 23 20 19 18 17 16 15 15 13 11 9 8 4 3 8 10 9 13 25 30 30 27 22 17 13 10 9 8 8 8 7 6 7 8 8 8 7 4 6 8 8 9 7 9 7 2 5 4 4 7 5 4 2 2 5 6 9 12 9 2 2 2 4 5 4 12 14 14 16
33 32 31 32 32 32 32 33 34 35 35 33 33 32 28 27 28 28 26 25 22 20 19 18 16 16 15 13 11 10 11 9 3 4 11 17 9 12 24 26 25 22 19 16 12 11 9 10 11 9 7 8 9 10 8 6 6 9 10 7 9 8 10 9 1 2 5 8 6 2 2 4 9 6 2 8 13 12 6 2 1 2 1 5 10 13 15 17
34 34 33 33 33 33 32 33 33 35 37 34 34 34 31 28 28 29 27 26 24 22 21 19 18 17 16 13 9 8 12 16 15 9 5 15 16 1 16 21 22 21 19 18 14 13 11 12 13 8 9 9 7 9 8 6 8 12 11 8 8 7 10 11 4 2 5 6 2 1 6 10 11 3 3 11 12 13 10 5 4 2 3 7 10 12 14 15
35 35 35 34 33 33 33 33 33 36 37 35 35 34 32 30 29 30 29 27 26 24 22 20 20 19 19 14 8 9 11 15 24 24 16 11 13 6 8 16 20 21 18 18 16 15 12 11 13 9 9 9 7 9 9 9 9 10 13 11 10 10 12 10 6 7 7 4 2 5 12 15 7 1 8 16 14 13 10 7 5 4 6 8 10 12 14 14
36 36 36 35 34 34 34 34 34 34 35 36 36 34 33 32 30 30 31 28 26 26 23 22 21 20 20 14 9 10 4 5 20 29 26 18 11 6 4 11 18 21 18 16 17 17 11 9 12 6 5 6 8 8 10 11 5 5 11 13 13 15 14 7 5 7 6 4 6 9 16 15 3 3 11 10 8 8 8 8 6 7 9 10 10 11 13 14
37 36 36 36 36 35 34 36 35 34 35 36 38 38 36 34 32 31 31 29 28 26 24 23 21 22 21 13 11 10 3 2 7 16 24 21 15 10 8 10 14 19 18 14 16 17 11 6 7 4 2 4 6 6 8 8 3 3 7 10 12 14 15 9 6 6 4 5 8 9 16 15 4 6 15 9 4 4 5 8 7 8 10 10 11 10 10 13
37 37 37 37 37 37 36 37 36 35 35 35 38 40 37 35 34 33 32 31 29 26 26 24 22 23 19 13 15 10 5 3 1 4 13 15 15 15 14 13 12 16 17 15 15 17 13 5 6 10 5 3 4 3 5 6 4 5 5 9 12 12 15 15 11 8 8 6 5 4 12 15 9 12 19 15 9 6 7 11 8 9 10 9 10 9 8 11
37 37 38 38 37 38 38 37 36 35 35 36 37 39 38 37 35 34 33 32 30 27 26 24 24 24 16 11 13 14 12 8 2 2 7 9 10 13 15 16 14 16 17 17 17 20 21 12 8 10 4 2 4 2 1 4 4 5 7 10 10 11 14 16 13 9 10 7 8 4 10 13 12 16 21 14 10 9 10 14 12 10 9 8 8 8 9 11
38 38 38 38 37 38 39 38 37 35 35 36 36 38 40 39 35 34 34 33 30 28 26 25 26 23 14 9 7 14 23 18 12 7 5 6 6 7 12 16 16 16 17 17 15 18 23 17 7 5 2 3 2 1 1 2 4 6 7 7 8 10 10 10 12 12 10 7 11 10 12 12 11 12 14 9 9 11 12 15 15 11 9 8 8 8 10 11
40 39 38 38 37 38 39 39 39 36 35 35 37 37 39 41 38 36 34 34 32 30 27 25 26 17 7 11 8 10 20 21 24 21 11 7 6 4 7 13 15 14 16 15 12 14 19 16 7 5 4 1 1 4 5 3 4 6 7 8 9 10 6 5 10 14 13 7 12 14 10 9 10 12 11 6 8 11 13 16 15 13 11 10 8 8 9 10
40 41 39 38 38 38 39 39 39 38 36 36 37 36 38 42 41 39 37 36 32 30 28 22 24 19 6 8 7 9 15 16 23 29 25 18 11 4 5 11 10 9 13 11 10 12 14 12 6 4 4 4 6 8 7 7 7 8 10 11 9 11 9 6 6 11 15 8 11 17 11 7 5 10 11 5 8 11 13 16 16 14 12 11 9 8 9 9
40 41 41 40 39 38 39 39 39 39 37 36 37 36 38 39 39 40 38 34 30 30 28 18 20 18 6 5 6 10 14 14 17 23 28 29 20 8 5 7 7 8 8 7 8 9 8 7 4 2 3 7 11 9 9 13 12 10 10 11 12 13 12 8 4 6 12 9 9 15 15 14 8 6 6 3 7 12 13 16 18 15 12 10 9 8 9 9
41 41 42 42 41 40 40 39 39 39 38 37 35 35 37 37 38 39 33 29 25 23 20 12 15 13 8 11 9 6 10 13 18 19 21 25 22 12 4 3 6 11 9 5 5 6 5 4 3 5 6 9 12 13 14 13 9 11 13 11 11 13 13 11 5 4 10 9 10 14 14 17 16 12 11 8 7 10 14 15 16 15 11 9 9 9 10 9
42 41 42 43 44 43 41 40 39 39 39 37 35 36 36 31 31 31 28 26 17 11 12 11 13 8 4 9 9 7 9 15 18 16 16 17 15 12 6 3 5 10 9 6 7 7 6 4 4 7 10 13 17 19 20 12 3 10 14 11 11 11 10 9 7 5 9 9 12 16 16 16 16 15 15 14 8 9 13 14 13 12 9 9 9 10 10 10
42 42 43 44 45 45 43 42 40 41 39 36 34 30 22 17 13 12 15 19 15 13 13 14 15 7 3 7 12 12 11 14 12 11 17 20 16 13 9 5 3 5 8 10 10 8 7 7 7 9 13 18 21 22 24 18 9 9 9 10 12 12 10 8 9 7 7 10 14 16 18 18 18 16 16 17 15 13 13 14 14 12 11 11 10 11 12 11
44 44 44 44 46 46 45 44 42 42 40 37 35 18 7 12 8 5 10 11 18 20 11 11 17 11 4 7 14 18 12 9 10 12 21 25 19 14 9 7 6 5 9 13 9 7 7 10 12 15 18 19 20 22 23 22 19 14 10 10 11 12 11 8 9 8 7 8 14 16 18 19 18 16 14 15 19 17 14 14 16 16 15 12 11 13 12 11
48 47 46 47 47 46 47 46 44 44 41 40 36 14 8 18 13 13 17 8 15 22 12 11 17 11 3 4 11 17 10 7 9 12 19 22 17 13 9 10 11 8 9 11 8 7 9 11 16 19 18 16 18 20 21 22 20 16 14 12 11 10 9 6 7 8 7 6 12 15 16 17 16 17 16 15 18 18 15 15 16 17 16 15 14 13 13 12
52 50 50 49 48 49 48 47 46 44 41 40 35 20 22 27 16 19 18 2 8 18 14 12 14 15 9 3 8 15 11 9 11 13 19 20 15 13 11 11 14 12 11 12 11 12 10 12 20 20 14 17 19 18 17 17 16 16 15 14 14 12 8 7 7 9 8 8 11 11 12 15 15 16 17 16 18 18 17 18 18 17 17 17 16 14 14 15
57 53 51 51 52 50 48 49 45 42 43 40 36 34 35 30 23 28 15 5 3 12 14 11 8 14 11 5 10 15 11 8 9 13 21 20 13 11 12 12 14 14 13 15 16 16 13 13 17 18 17 20 20 16 16 14 13 17 18 16 16 15 12 9 5 6 8 10 10 9 10 13 14 16 17 14 16 18 19 19 19 19 18 17 17 16 15 16
59 56 54 54 52 51 52 47 40 41 41 36 38 42 37 26 29 36 16 1 5 7 11 10 3 10 9 7 11 11 7 6 6 13 20 20 15 11 10 9 9 14 17 18 17 14 15 13 12 15 19 22 19 15 16 14 11 14 18 21 21 18 15 11 6 4 7 10 9 8 10 12 11 15 17 13 14 18 18 19 22 21 19 16 16 16 16 16
61 57 56 56 54 56 47 29 35 46 33 28 39 44 36 28 32 34 13 2 6 6 13 14 7 13 15 10 10 8 7 7 5 13 19 20 17 9 9 9 6 13 17 14 11 6 6 11 12 16 18 20 20 17 17 15 12 11 13 18 21 19 18 16 11 7 10 10 3 6 11 13 10 12 16 13 15 19 17 19 22 20 18 16 15 15 15 15
62 59 59 57 57 57 35 17 37 42 19 24 43 42 36 36 36 28 8 5 6 7 12 12 8 16 19 14 15 11 7 6 6 11 17 20 16 3 7 13 8 10 10 7 8 5 5 10 13 16 17 17 17 16 17 17 13 8 4 10 16 20 22 18 12 11 11 6 1 5 8 12 13 11 13 14 15 18 18 20 20 17 17 17 15 15 16 16
62 62 60 59 61 60 44 31 32 28 25 36 42 38 38 42 36 20 7 6 5 8 10 8 5 10 13 15 19 11 3 8 9 9 13 19 16 3 7 15 12 12 11 9 9 7 12 15 14 16 15 13 13 14 14 16 15 7 7 11 14 16 18 12 10 12 8 5 8 9 5 8 15 12 11 15 18 21 22 21 20 16 16 15 16 17 18 18
62 62 60 62 62 61 58 45 28 30 45 43 36 39 43 41 25 7 5 6 3 4 6 9 8 8 12 15 18 14 5 5 7 5 7 10 9 3 5 11 12 13 12 12 11 8 10 9 11 15 13 10 12 13 13 16 15 6 9 9 11 11 12 10 11 11 6 7 11 11 10 10 15 14 10 13 17 19 18 16 17 17 16 15 16 17 17 16
61 62 63 63 57 55 54 41 34 42 47 39 40 46 41 28 14 5 8 6 3 2 4 9 11 12 18 17 15 18 12 4 5 7 6 4 3 2 1 1 4 8 9 10 12 12 7 1 2 9 10 11 13 12 14 19 14 8 8 9 9 8 9 9 10 8 8 11 11 15 19 15 14 15 10 12 16 14 11 12 13 14 16 16 16 15 16 15
59 61 64 61 54 53 39 24 35 45 40 43 50 46 27 11 8 8 8 3 4 4 6 10 13 15 21 19 13 19 18 8 8 11 9 5 4 4 4 3 2 4 6 7 8 12 11 6 3 3 4 7 12 12 12 13 10 9 8 9 6 4 6 6 7 8 9 10 10 17 23 19 17 16 6 6 12 12 12 15 15 14 14 14 13 13 14 14
54 58 62 61 55 52 37 28 42 45 43 53 47 28 13 8 8 7 6 6 4 7 10 14 17 19 24 23 14 17 19 11 10 14 13 10 7 8 10 8 8 8 8 8 9 10 12 11 9 5 3 4 11 11 7 5 7 10 10 10 8 5 5 7 8 9 9 8 10 15 18 17 17 20 16 11 9 5 6 8 8 11 11 9 10 11 11 12
49 54 58 60 54 49 45 45 47 45 52 56 33 10 8 8 8 7 9 7 5 8 12 14 20 24 26 22 14 16 16 8 9 14 14 12 10 9 12 11 11 9 6 9 11 9 8 10 12 10 4 7 12 10 8 7 9 12 10 10 11 7 7 10 9 8 7 8 10 11 12 11 10 17 23 21 19 15 14 12 8 9 11 11 11 10 10 11
46 51 53 54 51 47 48 47 46 51 54 43 18 6 8 9 7 10 10 6 4 11 14 16 20 22 21 18 15 16 14 8 12 15 13 12 10 10 11 11 13 8 3 8 9 9 10 9 12 14 8 10 15 14 11 8 9 13 10 9 11 8 8 10 9 11 8 4 6 10 9 8 9 11 8 6 12 15 18 20 16 16 14 10 9 8 8 10
45 50 49 47 45 45 47 44 51 59 47 24 10 8 10 9 9 12 9 6 7 12 15 17 19 18 15 13 13 14 8 7 14 13 10 12 10 11 12 11 13 10 6 8 6 8 13 8 8 15 13 12 16 15 12 8 7 9 7 7 10 8 8 10 8 8 5 3 6 9 7 5 9 14 8 3 4 5 10 15 16 18 15 10 8 8 8 9
44 46 43 41 42 45 48 47 57 59 36 13 8 9 10 6 6 10 10 7 10 16 19 16 15 15 13 10 12 16 9 7 15 11 7 11 10 11 13 12 14 12 9 9 5 6 10 8 7 13 14 15 16 14 14 10 4 4 8 9 5 1 4 9 8 3 2 7 7 7 8 6 7 14 14 15 12 7 8 10 11 14 14 13 13 11 10 10
38 34 28 32 41 46 47 52 58 49 26 11 7 6 7 4 2 8 9 8 14 21 19 12 11 12 13 11 12 19 14 9 14 12 8 10 10 12 15 12 15 17 14 12 6 3 6 8 7 11 14 16 15 15 17 15 8 4 6 8 3 1 1 3 5 4 5 8 4 7 12 10 8 8 8 15 19 15 13 11 11 11 12 14 13 12 13 12
29 23 16 25 43 46 49 57 54 33 14 9 8 6 6 5 5 9 10 12 17 20 13 8 10 11 13 15 13 19 19 12 13 13 10 9 8 13 18 13 13 19 17 14 7 1 3 7 5 9 13 13 11 12 13 15 16 9 3 6 5 3 4 3 4 4 7 7 4 8 12 10 12 10 6 10 16 15 13 13 13 12 11 11 11 11 14 13
20 12 7 24 45 48 53 56 40 19 9 9 10 8 5 3 4 8 13 15 15 16 12 7 9 10 13 16 15 19 20 15 15 13 9 9 6 12 18 11 11 18 17 14 8 1 2 5 5 5 7 7 8 8 8 10 14 7 2 5 4 1 3 5 3 2 4 7 6 7 9 8 11 12 13 14 12 9 9 11 13 13 12 11 10 10 11 11
12 5 4 28 48 52 57 47 22 9 7 8 8 8 5 3 4 10 15 16 10 6 9 10 10 10 13 15 15 17 16 15 17 12 8 10 6 7 15 13 12 15 17 15 9 2 2 4 5 2 2 4 5 7 9 12 12 8 5 7 6 3 2 3 4 2 2 5 6 6 7 6 6 10 15 16 13 9 9 10 11 11 13 14 12 12 10 10
9 4 5 33 53 55 48 25 7 7 8 7 6 5 7 5 7 13 15 13 5 2 4 11 12 10 12 14 15 15 14 13 15 12 9 13 10 7 11 12 12 14 15 13 10 7 5 4 7 4 2 5 5 3 7 11 11 10 10 11 10 8 7 8 9 6 3 3 3 4 4 3 1 4 8 11 13 11 8 9 9 9 12 12 11 11 10 9
9 4 8 40 61 53 30 7 3 9 7 6 6 6 9 8 9 15 14 9 4 3 2 7 9 10 9 10 12 14 14 13 16 14 11 14 14 8 7 10 13 15 13 11 9 6 3 3 7 7 5 4 2 1 2 4 3 3 4 7 10 11 10 11 11 6 4 6 5 5 6 4 2 3 4 6 6 4 3 4 5 7 10 10 10 10 9 10
8 4 14 47 65 47 19 5 8 8 5 7 8 7 10 10 10 12 11 8 5 3 4 5 6 9 6 6 10 13 12 12 15 14 11 13 12 6 8 13 15 16 13 9 8 4 2 4 8 8 6 3 1 0 0 1 2 2 2 1 4 6 5 5 5 2 3 5 6 6 7 6 5 5 6 5 2 4 3 2 3 6 6 7 9 9 9 9
6 4 11 39 58 40 14 8 10 7 5 8 10 9 7 5 9 12 11 8 5 6 8 4 4 5 4 7 11 13 13 9 11 12 9 12 8 3 8 15 16 15 10 8 9 7 5 6 7 8 6 5 5 5 4 4 4 5 5 4 5 6 4 1 2 2 4 6 8 9 7 3 3 4 6 5 2 2 1 0 2 4 5 6 8 8 9 10
6 4 4 20 34 23 7 7 11 9 9 10 12 13 10 5 3 6 8 4 2 4 7 4 5 6 6 9 10 13 12 4 6 10 7 7 5 2 4 13 16 12 6 7 12 9 6 6 7 10 9 8 10 7 5 5 5 5 6 7 9 11 11 6 2 4 6 3 6 8 5 4 10 14 12 8 3 2 2 1 2 3 4 5 6 7 8 9
6 3 3 7 9 5 0 4 10 11 12 13 11 12 15 11 2 2 4 3 2 4 7 3 6 9 9 13 12 12 10 2 2 9 8 7 5 1 4 10 13 10 6 10 14 9 4 5 9 12 12 11 8 3 2 1 3 5 7 10 11 11 13 9 5 6 7 5 7 9 6 6 14 21 20 14 8 7 6 3 4 6 6 6 5 5 8 8
4 2 4 4 3 3 3 5 10 10 13 14 10 10 14 14 8 2 2 1 1 5 6 3 6 9 12 15 13 12 10 4 3 9 12 9 5 3 3 5 8 9 8 10 12 7 3 7 11 13 15 14 5 2 1 2 2 3 4 7 8 8 10 10 8 9 7 5 9 11 8 8 13 21 24 18 9 9 8 6 8 10 9 9 8 8 11 12
2 2 2 2 2 6 6 8 11 11 13 11 7 11 16 15 14 9 2 2 3 4 4 2 6 13 15 14 12 12 11 6 3 9 11 9 7 7 5 2 4 8 8 8 8 5 4 8 10 11 16 16 5 4 2 0 1 1 1 3 4 5 8 9 11 12 10 8 10 11 10 12 13 18 25 19 9 9 12 11 12 11 9 9 11 12 14 14
3 3 1 4 2 9 11 12 15 15 15 10 6 11 17 17 16 9 3 5 7 4 4 6 10 14 16 14 12 13 14 9 6 7 7 8 8 8 8 4 4 8 9 9 7 4 5 7 7 9 14 15 9 6 5 4 5 6 7 7 6 7 9 11 12 14 13 12 12 14 16 15 13 17 24 21 11 9 11 11 11 12 10 9 11 14 16 15
3 3 4 3 4 7 11 12 15 15 12 9 8 10 14 17 16 9 3 6 10 7 5 11 14 14 16 15 11 13 17 14 10 11 11 11 10 9 7 5 5 8 9 9 6 3 5 5 6 7 9 11 9 8 8 8 8 10 11 11 11 12 13 14 14 13 13 12 12 15 17 14 13 17 24 22 12 7 10 13 13 13 10 9 10 13 14 14
1 2 6 6 5 8 10 9 11 12 8 7 9 10 13 16 15 12 4 1 4 7 7 14 16 12 12 14 12 12 15 13 11 14 15 12 10 9 7 4 7 10 8 7 5 4 5 4 4 5 8 8 6 9 9 6 5 10 13 14 16 15 13 13 13 11 12 12 12 13 13 11 14 17 20 21 15 10 12 12 11 10 8 8 10 11 12 13
2 4 5 5 6 9 10 9 10 9 5 6 9 9 11 14 13 13 9 4 4 5 9 16 16 9 9 13 11 9 10 8 7 8 8 6 5 6 5 6 11 11 8 7 5 4 7 6 4 6 8 5 4 7 7 5 4 9 12 14 17 16 13 12 11 12 14 13 11 12 11 12 14 14 16 21 17 11 8 6 5 7 8 9 11 13 13 13
Wind_Direction
255 251 246 241 239 238 237 235 234 235 237 242 244 243 240 239 235 230 232 236 237 242 247 253 257 262 267 273 272 269 272 272 269 254 243 241 237 239 244 246 246 235 235 243 251 265 267 250 231 318 284 290 313 267 259 322 198 214 225 233 235 236 228 193 194 192 129 168 148 153 172 215 162 165 187 206 238 237 218 204 200 212 211 196 80 75 133 149
257 255 251 245 240 238 238 236 232 232 232 234 239 242 240 239 236 230 228 232 236 237 240 248 252 255 259 266 270 271 275 275 273 262 250 246 245 245 244 244 245 245 245 241 241 242 249 247 193 178 251 242 220 272 247 191 205 225 228 234 235 243 231 187 218 203 210 238 168 153 173 217 246 143 155 246 251 226 238 224 197 221 215 186 143 134 143 156
255 255 253 248 243 240 237 236 234 231 230 230 232 238 239 237 235 231 229 231 235 236 234 240 246 251 254 255 263 273 283 285 274 263 257 253 248 245 242 240 239 243 241 233 236 230 243 251 184 193 224 235 212 202 239 192 202 222 224 237 239 247 246 224 232 220 223 252 246 200 180 216 210 158 166 253 272 244 246 244 210 225 221 194 163 151 154 166
253 252 252 249 247 245 239 234 234 232 229 228 228 233 235 236 234 232 231 230 233 234 232 234 238 244 250 248 253 266 286 292 274 263 263 259 251 246 241 238 232 234 233 222 222 215 223 214 185 205 214 225 207 201 229 199 193 207 211 240 246 247 255 239 222 224 227 249 263 238 196 245 195 167 205 242 267 255 248 248 243 255 245 188 160 162 164 170
251 250 251 251 249 247 241 235 233 232 229 228 227 229 232 233 233 231 230 231 232 232 231 231 231 237 244 243 244 248 256 277 281 299 288 267 252 243 238 234 228 226 216 202 198 181 194 193 185 197 212 228 198 201 228 204 193 229 221 244 256 246 257 250 213 220 210 206 258 235 242 258 117 178 215 229 248 262 278 282 264 279 286 192 165 170 169 175
251 249 249 251 249 247 244 238 234 232 230 227 226 227 229 230 231 230 229 229 229 231 232 229 227 230 235 238 237 226 216 231 69 58 25 349 264 239 234 230 224 217 200 192 182 165 184 190 197 205 209 227 211 213 223 194 189 241 234 236 249 245 251 260 205 209 186 209 234 230 256 252 224 238 214 224 243 263 315 68 300 307 304 209 168 171 175 182
253 250 248 250 250 248 246 243 237 232 229 227 225 225 226 227 228 229 227 227 226 227 230 228 226 224 226 228 227 221 221 233 213 69 30 16 349 231 227 224 213 203 191 190 182 178 190 189 206 214 209 223 217 216 214 191 195 235 244 229 236 244 248 256 262 171 199 222 234 223 262 229 242 255 192 228 245 258 263 164 230 319 279 190 175 181 188 189
253 251 249 249 249 248 247 245 241 236 230 225 224 223 223 224 225 226 225 225 223 223 227 227 224 220 219 213 211 227 232 235 234 236 334 7 14 68 210 214 200 190 191 198 190 188 192 197 207 202 217 225 202 204 203 206 214 226 240 238 237 247 251 254 237 194 223 225 230 218 248 252 252 273 258 249 250 255 255 219 225 247 191 192 195 198 199 198
252 252 251 249 247 247 248 245 244 243 234 226 225 222 220 221 222 224 223 222 221 221 223 225 221 216 216 207 205 240 239 235 237 245 267 309 353 18 190 203 197 189 195 206 205 201 193 202 206 193 229 228 194 205 197 211 229 218 227 237 238 245 251 250 228 227 235 222 227 243 256 262 256 320 269 253 250 254 250 234 221 218 213 207 206 205 205 206
250 249 250 249 247 247 247 245 244 245 240 232 228 223 220 219 218 221 221 220 219 218 219 222 217 208 208 200 204 238 245 241 240 246 260 271 290 310 192 196 196 192 196 203 209 210 201 205 201 188 263 233 199 209 198 210 237 196 220 238 238 247 252 238 220 233 237 236 232 242 259 264 207 187 259 245 231 241 239 236 217 223 233 223 216 211 209 212
249 247 246 246 246 245 244 245 244 244 243 237 231 226 223 220 216 217 219 219 217 216 216 218 213 204 202 196 213 230 136 99 247 243 253 261 258 249 223 207 194 191 196 199 208 213 213 216 186 163 266 220 195 205 209 214 246 212 218 245 242 247 252 236 226 223 220 239 219 233 263 262 182 205 252 244 198 194 225 239 213 220 238 230 224 216 212 218
248 247 244 243 243 243 242 243 243 242 241 236 231 228 225 220 216 215 216 217 217 215 214 214 211 206 201 207 225 219 149 154 337 235 238 247 240 233 232 229 209 197 195 190 199 207 215 231 197 199 200 183 183 195 232 217 227 230 214 250 249 246 249 239 232 212 213 226 176 209 269 255 217 221 247 247 232 228 243 250 231 220 233 231 225 218 219 222
247 246 245 242 241 242 242 241 241 240 238 235 232 229 224 221 217 214 213 213 214 213 211 211 206 203 206 224 228 215 208 210 213 237 230 235 234 226 225 227 224 218 208 199 199 201 206 212 218 219 209 209 203 103 289 202 202 225 218 246 252 249 250 237 225 199 209 212 149 183 265 254 232 226 237 237 227 230 240 248 242 227 228 228 221 219 225 221
247 246 244 242 240 240 240 239 239 237 235 234 235 233 228 225 218 212 212 212 211 209 208 208 202 197 208 235 235 223 227 224 219 225 238 258 252 216 211 212 215 220 215 209 205 199 199 197 203 237 238 247 231 87 292 178 187 219 222 234 236 249 254 222 203 182 203 203 158 202 256 260 254 236 229 216 213 228 236 245 244 230 222 223 219 219 229 222
247 246 243 241 239 238 237 236 237 236 233 232 234 233 227 224 218 211 212 211 209 206 201 203 199 190 218 246 248 230 223 221 225 225 227 263 271 221 207 202 202 206 206 205 205 195 189 182 178 211 202 180 214 206 221 217 202 207 222 232 223 235 242 197 186 184 208 208 171 206 252 261 254 251 242 199 194 221 235 246 246 235 225 223 222 218 230 231
247 244 242 240 238 237 235 233 234 233 231 230 231 232 226 224 219 212 211 207 207 202 193 190 192 192 227 242 223 214 207 207 220 223 223 235 256 258 207 195 188 186 192 192 194 186 176 176 178 209 197 179 206 213 221 235 227 209 223 240 228 227 236 217 181 190 209 207 185 209 243 265 242 245 250 208 191 213 229 244 247 239 230 223 226 221 226 235
245 243 243 241 238 237 235 232 230 229 229 228 228 228 225 223 219 213 210 204 201 195 189 186 182 188 232 238 202 205 200 196 207 215 219 225 238 243 185 178 157 143 149 143 167 167 155 175 174 176 208 206 209 206 216 229 230 219 221 240 240 236 239 222 180 184 204 214 211 215 235 253 253 249 251 209 208 224 231 244 248 244 233 223 226 227 227 233
244 243 242 241 239 236 234 231 228 227 226 224 225 224 222 223 219 213 203 191 187 180 181 179 165 177 238 229 206 177 174 186 198 202 205 212 221 219 176 144 140 141 138 121 164 165 151 178 191 188 192 207 208 201 213 225 226 219 217 230 239 236 237 233 227 172 184 209 229 223 233 244 247 250 251 236 210 225 237 242 251 251 241 229 229 234 234 233
242 242 241 240 238 235 233 229 226 226 223 223 223 221 222 224 219 208 184 169 172 169 173 173 167 179 235 195 164 132 162 183 194 192 179 182 194 197 182 152 155 160 167 175 182 177 163 159 195 203 194 203 208 208 217 223 217 220 221 231 240 238 240 235 229 189 181 214 233 230 240 246 242 239 244 248 225 219 239 243 252 257 249 242 236 237 237 234
243 242 239 238 237 234 232 228 225 222 220 218 214 213 219 213 208 204 170 167 188 196 185 175 182 189 66 125 139 135 154 170 173 164 167 175 173 174 179 173 195 193 186 187 180 173 175 185 201 210 209 208 208 214 222 226 237 243 238 241 243 244 247 225 208 189 182 229 243 238 245 248 246 240 233 245 247 234 237 245 251 254 251 247 239 240 241 238
242 242 240 237 234 233 230 227 224 220 218 212 204 203 211 193 194 183 158 175 200 203 201 177 189 199 101 113 140 136 134 155 170 164 175 184 174 167 181 185 205 215 195 193 175 152 183 208 215 215 217 215 212 217 223 228 237 248 250 250 250 247 248 235 210 195 177 225 252 253 253 251 249 250 234 235 250 248 238 241 248 249 250 248 240 240 243 243
243 242 240 236 232 230 228 225 223 219 216 209 202 204 212 207 216 183 163 166 197 202 214 182 187 201 145 124 154 152 142 148 174 175 177 181 175 178 186 189 209 219 204 196 168 167 198 216 222 219 219 221 221 219 221 229 236 242 245 246 253 248 244 241 213 205 190 216 254 259 260 261 256 252 239 227 242 253 244 238 246 248 248 249 244 239 239 242
245 242 238 236 230 226 225 221 220 216 210 205 201 205 211 214 211 172 160 109 188 197 207 188 188 197 185 162 168 169 165 161 175 179 177 177 178 190 185 188 212 218 214 205 185 189 202 214 222 221 214 217 222 219 216 225 233 236 237 237 243 239 235 244 217 202 202 221 255 267 265 266 262 252 241 227 231 248 247 237 240 244 243 245 248 244 240 242
245 239 236 233 226 224 221 218 217 212 207 205 206 209 211 212 191 163 146 17 189 188 199 191 189 198 187 124 160 176 176 171 175 175 178 180 176 186 191 191 204 213 220 215 204 206 211 214 218 216 213 217 220 216 211 216 227 232 232 234 240 235 235 251 228 192 215 234 246 268 274 265 256 249 244 228 223 237 243 238 237 239 236 237 244 246 243 244
240 236 232 227 224 221 216 214 211 207 206 206 209 211 207 201 182 167 147 11 201 173 184 183 183 203 183 135 164 172 167 178 178 174 179 184 177 172 193 194 196 213 219 218 216 218 223 222 212 211 215 219 220 218 210 208 225 235 230 229 236 240 241 248 236 202 245 252 230 228 258 267 253 244 244 230 217 226 233 235 236 236 233 228 232 240 241 241
235 232 227 222 221 215 211 210 204 203 204 204 208 208 199 186 175 166 150 252 210 163 170 172 164 185 182 168 160 143 174 202 172 168 174 185 186 172 191 192 195 217 213 217 226 223 232 234 222 217 216 216 221 223 213 206 221 239 228 221 228 236 241 242 237 228 248 260 223 192 245 273 271 245 243 233 222 229 229 229 234 234 235 232 229 235 238 239
231 227 222 219 216 210 203 200 199 198 198 204 203 199 190 179 166 159 167 261 212 157 161 166 165 179 179 166 153 150 186 168 125 173 179 183 188 184 209 193 190 218 201 197 223 199 196 226 226 220 218 216 218 225 218 207 220 241 179 185 208 223 233 238 238 239 248 264 255 196 233 273 275 255 241 228 227 241 237 230 234 229 230 237 234 233 237 238
226 222 218 215 212 206 202 198 193 191 202 202 191 182 175 167 158 155 195 234 177 137 147 158 156 164 159 150 159 179 206 128 141 190 181 181 184 178 221 201 195 205 189 189 213 197 196 215 221 217 222 221 215 226 215 200 223 240 120 159 196 214 223 222 226 238 243 252 245 224 199 257 267 263 237 220 227 244 243 235 238 228 218 229 235 231 233 236
220 217 215 211 208 205 203 198 186 193 203 194 174 166 159 153 151 155 222 215 136 121 150 155 147 136 143 152 170 194 204 135 163 167 147 178 189 183 216 210 206 203 196 205 219 215 204 217 222 215 224 227 220 226 206 198 221 203 134 188 217 214 209 205 221 235 233 235 238 223 206 234 265 268 236 213 223 237 243 241 241 234 217 216 228 229 229 235
216 214 211 206 202 199 198 197 195 196 195 181 164 159 151 149 160 187 219 210 105 157 179 160 163 152 154 160 175 193 192 152 141 133 125 154 175 194 187 165 206 205 207 215 227 237 233 279 230 216 228 228 224 226 209 208 211 154 150 219 234 219 214 218 222 226 235 239 228 216 216 225 259 267 241 222 232 234 239 245 242 238 226 217 223 227 227 233
214 212 207 201 196 192 188 194 197 191 182 170 160 153 150 169 189 193 209 181 101 180 169 151 153 147 159 167 176 190 189 171 152 151 151 151 154 176 165 130 151 193 213 215 227 242 241 244 231 240 265 226 221 225 215 213 200 164 181 211 220 216 215 223 212 207 230 236 216 214 217 220 243 261 246 222 244 238 234 244 244 244 236 221 222 228 229 233
210 207 203 198 194 189 186 189 187 180 170 162 155 148 159 195 208 202 170 140 169 189 157 149 151 154 171 178 177 182 181 173 165 164 165 167 167 181 188 186 176 186 208 207 212 228 236 238 227 247 304 214 217 218 205 206 195 194 198 194 203 208 197 206 202 208 224 226 216 211 211 217 237 254 256 249 256 257 254 262 262 261 261 243 227 229 231 232
204 204 200 195 190 186 188 188 180 169 160 156 154 158 175 196 211 174 144 164 197 165 154 159 163 165 173 177 177 176 173 164 163 169 173 171 170 188 202 199 190 198 205 198 207 216 228 236 225 230 242 202 213 212 195 191 190 199 197 191 203 206 211 218 212 216 226 229 224 200 198 213 232 254 257 251 252 259 262 260 252 254 262 255 239 229 229 231
200 200 197 191 188 187 187 183 173 164 157 153 158 185 192 205 181 143 156 184 151 147 161 163 159 163 170 174 175 170 168 169 169 169 170 171 175 191 202 205 204 208 183 186 202 206 217 231 212 208 201 186 204 215 210 192 187 199 200 206 213 206 221 231 227 231 232 227 197 179 189 195 202 235 252 242 245 248 249 246 239 240 242 244 248 242 239 239
197 195 192 185 184 186 182 175 168 164 159 157 168 189 205 200 155 149 163 159 138 147 154 150 146 152 166 171 168 169 174 170 167 167 169 174 185 191 192 200 202 198 183 190 195 199 219 237 193 193 198 191 200 213 211 196 196 199 188 214 226 212 223 241 247 245 243 238 183 182 210 200 216 246 250 231 228 198 232 244 239 242 237 228 242 243 239 241
191 189 187 181 181 181 177 170 163 161 160 166 177 193 205 189 150 162 161 159 160 145 139 142 144 152 162 161 165 175 185 165 164 170 181 183 191 193 193 197 193 192 194 195 188 186 212 233 196 188 203 207 203 200 195 190 188 184 187 207 227 240 241 247 252 254 248 246 209 189 225 219 245 264 246 238 243 201 206 233 229 232 228 223 233 236 234 237
184 183 183 182 179 176 173 167 161 159 162 179 195 194 187 183 170 165 155 149 149 143 138 142 155 163 163 164 177 179 174 161 166 176 184 184 193 195 196 198 188 190 199 201 209 194 203 233 212 185 203 213 207 201 200 197 187 182 202 194 165 44 300 263 251 222 219 241 216 201 224 212 217 251 225 224 239 228 204 206 218 219 214 221 231 234 239 242
176 175 181 182 175 169 168 166 162 160 166 187 191 164 159 182 182 166 155 142 143 148 147 144 160 170 170 172 181 177 171 168 172 180 183 181 196 192 189 197 193 194 200 203 215 218 196 235 211 180 202 205 192 200 210 208 206 214 219 170 159 220 225 211 239 234 225 233 212 210 226 215 206 226 228 214 230 230 204 197 215 218 211 220 231 235 241 243
167 169 183 174 169 166 165 163 161 161 172 190 187 169 153 159 174 173 159 149 149 153 152 151 156 163 175 178 175 172 176 179 174 177 185 182 193 187 179 182 191 195 198 197 206 201 160 234 223 180 196 182 167 196 214 212 213 225 250 185 179 241 217 214 241 265 237 241 237 209 217 222 208 221 241 236 232 228 201 199 216 223 223 224 226 232 237 241
158 164 167 162 162 162 161 159 160 168 177 188 183 166 147 125 167 176 161 153 152 151 157 160 155 155 167 173 173 172 177 181 175 177 191 180 178 189 180 176 179 186 191 193 201 196 143 226 226 170 135 174 180 195 203 207 206 204 215 211 204 194 211 254 262 249 243 254 251 220 217 229 205 215 236 243 245 237 216 211 213 218 229 230 229 234 238 246
153 171 163 157 157 156 156 156 166 172 175 183 173 157 152 142 153 161 158 151 133 7 153 149 148 151 155 163 172 173 174 179 178 181 193 186 188 203 189 181 171 166 178 193 204 205 188 204 215 201 173 206 208 207 223 225 213 205 211 210 209 212 221 245 246 230 225 248 261 258 256 258 185 217 238 246 254 253 239 232 223 221 234 238 240 243 248 258
156 177 156 155 155 155 156 159 161 165 181 177 152 141 147 143 148 156 158 150 113 20 98 123 132 142 147 160 166 167 171 178 182 186 197 198 198 197 182 176 163 156 167 189 200 198 181 201 222 228 231 216 199 22 287 255 225 229 231 209 213 216 216 233 245 246 234 226 235 256 256 257 286 295 277 264 270 305 327 277 257 246 245 250 259 262 264 265
150 148 146 153 155 156 160 171 156 160 180 152 131 129 140 144 152 155 159 158 143 132 129 115 130 141 153 164 154 159 166 174 186 187 188 197 198 179 168 165 154 156 168 184 188 178 156 200 221 230 237 244 243 71 48 112 146 234 267 187 212 220 211 221 239 285 282 225 224 251 250 242 256 264 269 282 339 32 14 328 275 267 267 272 277 279 279 279
132 117 136 153 157 159 164 175 158 147 153 137 125 124 116 126 152 159 166 164 153 147 138 129 145 141 153 155 149 160 162 164 189 189 184 191 186 119 159 163 158 164 178 183 174 170 178 193 209 219 228 239 233 230 227 206 203 225 226 189 190 217 230 214 178 244 266 220 214 243 252 239 283 290 278 286 356 38 319 298 261 279 302 309 306 307 304 305
122 115 127 153 158 161 168 175 153 137 141 135 130 133 124 109 147 154 149 134 48 131 127 127 142 112 113 137 141 162 166 148 183 183 182 183 171 69 159 171 173 173 174 161 156 164 187 188 197 210 215 217 217 224 238 217 200 212 219 199 193 204 211 214 219 236 250 230 212 240 260 318 320 311 298 296 330 350 303 281 279 279 283 292 297 303 305 305
130 129 151 143 151 153 71 158 147 141 146 139 132 140 139 139 137 29 97 90 18 97 95 100 133 111 123 146 145 162 170 61 100 166 171 168 157 156 177 179 184 176 146 148 155 161 184 195 206 214 221 225 217 214 334 55 157 190 206 204 206 207 204 207 223 232 246 274 263 260 272 300 299 293 290 294 299 287 277 286 308 299 291 290 280 283 297 293
132 129 154 128 111 125 105 150 153 149 154 149 142 147 139 136 142 120 34 10 113 116 85 65 142 141 152 156 154 164 157 92 93 163 171 168 132 98 143 169 182 171 145 152 164 159 165 208 213 215 231 241 224 114 40 52 115 182 192 194 207 213 206 209 224 233 240 254 259 262 255 255 271 275 279 283 274 264 272 283 293 293 296 304 301 297 298 291
117 96 139 81 100 141 133 153 155 147 149 145 133 145 141 139 152 155 91 69 151 146 102 93 174 169 162 154 151 158 148 117 151 171 166 159 134 124 137 148 188 174 156 162 177 169 191 218 209 207 233 243 214 141 176 327 126 197 183 189 206 211 207 212 224 234 235 229 245 259 245 234 245 260 270 271 246 248 270 273 275 276 278 288 292 294 291 288
109 91 55 8 74 142 137 140 145 144 144 136 126 148 147 147 153 148 106 135 153 164 146 160 178 173 163 155 147 157 165 160 168 178 163 149 149 148 148 162 204 190 175 174 182 189 214 213 187 197 231 241 227 210 225 246 259 262 255 249 246 233 221 221 226 230 231 228 238 252 249 241 240 253 266 266 241 232 257 262 266 271 271 273 280 286 286 285
132 128 136 74 67 127 133 137 143 144 144 141 143 153 152 150 147 133 111 155 161 172 166 155 164 168 165 163 156 168 179 170 155 166 162 151 161 172 167 166 173 176 181 183 178 195 220 201 154 174 233 246 230 224 233 236 247 260 260 254 250 244 236 235 235 230 229 231 234 246 256 259 252 253 262 267 260 246 260 271 277 279 281 282 279 280 283 286
61 106 130 119 110 129 135 139 144 143 147 150 149 154 155 154 147 132 102 24 144 152 147 144 151 157 164 174 177 173 178 174 162 166 163 157 166 170 166 157 149 157 177 184 172 172 199 205 140 164 232 243 190 196 219 218 230 252 254 245 237 234 232 233 235 228 224 227 228 236 248 255 249 252 263 270 272 273 273 280 286 287 290 295 289 285 285 286
88 97 100 105 127 144 145 144 146 146 144 143 146 151 150 149 147 136 119 43 36 104 134 142 144 144 164 185 189 164 155 153 138 140 139 125 125 128 123 140 153 161 170 167 165 168 182 200 184 181 224 241 161 175 185 164 217 249 244 233 227 228 233 238 242 236 223 219 224 231 235 241 247 253 263 268 273 281 283 285 295 302 309 305 294 285 278 275